Location: Baia de Cri?
(46.1667°N, 22.7167°E)
Time: 21:37:20
(UTC+00:00)

Cosmos 2341 Rocket - Pass Details

Date: 15 January 2026
Orbit: 967 x 1004 km, 82.9° (Epoch: 10 February)

Event Time Altitude Azimuth Distance (km) Brightness Sun altitude
Rises 04:54:46 0° 178° (S) 3,712 7.3 -12.4°
Reaches altitude 10° 04:57:17 10° 176° (S) 2,768 6.7 -11.9°
Maximum altitude 05:03:36 70° 94° (E) 1,068 4.5 -10.9°
Drops below altitude 10° 05:09:58 10° 13° (NNE) 2,785 6.3 -9.9°
Sets 05:12:30 0° 11° (N) 3,736 7.0 -9.5°
